GW0087 Weather Reports


Display with metric or nautical units.
time (UTC)temp
F
wind
direction
speed
MPH
gust
MPH
rain 1hr
in
rain 24hr
in
rain mn
in
humidity
%
barometer
mb
20260509101031 70 0 0.0 0.0 0.00 0.00 0.00 89 1009.6
20260509100529 70 0 0.0 1.0 0.00 0.00 0.00 89 1009.6
20260509100040 70 0 0.0 1.0 0.00 0.00 0.00 89 1009.6
20260509095529 70 0 0.0 1.0 0.00 0.00 0.00 89 1009.6
20260509095028 70 0 0.0 1.0 0.00 0.00 0.00 89 1009.6
20260509094538 70 0 0.0 1.0 0.00 0.00 0.00 89 1009.5
20260509094029 70 0 0.0 1.0 0.00 0.00 0.00 89 1009.6
20260509093530 70 0 0.0 2.0 0.00 0.00 0.00 89 1009.4
20260509093038 70 0 0.0 2.0 0.00 0.00 0.00 88 1009.4
20260509092529 70 0 0.0 2.0 0.00 0.00 0.00 88 1009.0
20260509092029 70 0 0.0 3.0 0.00 0.00 0.00 88 1009.0
20260509091542 70 349 0.0 8.0 0.00 0.00 0.00 88 1008.5
20260509091029 70 0 1.0 8.0 0.00 0.00 0.00 88 1008.1
20260509090530 70 174 1.0 8.0 0.00 0.00 0.00 88 1007.9
20260509090052 70 172 1.0 7.0 0.00 0.00 0.00 88 1007.9
20260509085529 70 184 2.0 8.0 0.00 0.00 0.00 88 1007.6
20260509085029 70 155 3.0 8.0 0.00 0.00 0.00 88 1007.3
20260509084540 70 144 2.0 7.0 0.00 0.00 0.00 87 1007.5
20260509084029 70 0 1.0 9.0 0.00 0.00 0.00 87 1008.0
20260509083529 70 0 2.0 9.0 0.00 0.00 0.00 87 1008.5
20260509083036 70 0 0.0 6.0 0.00 0.00 0.00 87 1008.8
20260509082530 70 0 0.0 6.0 0.00 0.00 0.00 87 1008.9
20260509082029 70 183 0.0 3.0 0.00 0.00 0.00 87 1009.2
20260509081551 70 178 0.0 3.0 0.00 0.00 0.00 86 1009.2
20260509081029 70 0 0.0 3.0 0.00 0.00 0.00 86 1009.5
20260509080529 70 193 0.0 2.0 0.00 0.00 0.00 86 1009.9
20260509080038 71 0 0.0 2.0 0.00 0.00 0.00 86 1010.3
20260509075529 71 0 0.0 2.0 0.00 0.01 0.00 86 1010.0
20260509075031 71 0 0.0 1.0 0.00 0.01 0.00 86 1010.2
20260509074536 71 0 0.0 1.0 0.00 0.01 0.00 86 1010.3
20260509074029 71 0 0.0 1.0 0.00 0.01 0.00 86 1010.6
20260509073529 71 0 0.0 1.0 0.00 0.01 0.00 86 1010.7
20260509073046 71 0 0.0 2.0 0.00 0.01 0.00 86 1010.8
20260509072528 71 0 0.0 2.0 0.00 0.01 0.00 86 1011.0
20260509072028 71 0 0.0 2.0 0.00 0.01 0.00 86 1011.3
20260509071549 71 0 0.0 2.0 0.00 0.01 0.00 86 1011.4
20260509071029 71 0 0.0 2.0 0.00 0.01 0.00 85 1011.6
20260509070529 71 0 0.0 1.0 0.00 0.01 0.00 85 1011.7
20260509070043 71 0 0.0 2.0 0.00 0.01 0.00 85 1011.4
20260509065530 71 0 0.0 2.0 0.00 0.01 0.00 85 1011.3
20260509065028 71 0 0.0 2.0 0.00 0.01 0.00 85 1011.4
20260509064536 71 0 0.0 1.0 0.00 0.01 0.00 84 1011.2
20260509064030 71 0 0.0 1.0 0.00 0.01 0.00 84 1011.1
20260509063529 71 0 0.0 0.0 0.00 0.01 0.00 84 1010.9
20260509063059 71 0 0.0 0.0 0.00 0.01 0.00 84 1011.1
20260509062529 71 0 0.0 0.0 0.00 0.01 0.00 83 1011.1
20260509062030 71 0 0.0 0.0 0.00 0.01 0.00 83 1011.3
20260509061607 71 0 0.0 0.0 0.00 0.01 0.00 83 1011.2
20260509061033 71 0 0.0 0.0 0.00 0.01 0.00 83 1011.2
20260509060529 71 0 0.0 0.0 0.00 0.01 0.00 82 1011.4
20260509060056 72 0 0.0 0.0 0.00 0.01 0.00 82 1011.7
20260509055529 72 0 0.0 0.0 0.00 0.01 0.00 82 1011.7
20260509055028 72 0 0.0 0.0 0.00 0.01 0.00 82 1011.9
20260509054537 72 0 0.0 0.0 0.00 0.01 0.00 83 1011.6
20260509054029 72 0 0.0 0.0 0.00 0.01 0.00 83 1011.5
20260509053529 72 0 0.0 0.0 0.00 0.01 0.00 83 1012.1
20260509053042 72 0 0.0 0.0 0.00 0.01 0.00 82 1012.1
20260509052530 72 0 0.0 0.0 0.00 0.01 0.00 82 1012.3
20260509052029 72 0 0.0 0.0 0.00 0.01 0.00 82 1012.3
20260509051542 72 0 0.0 0.0 0.00 0.01 0.00 81 1011.8
20260509051029 72 0 0.0 0.0 0.00 0.01 0.00 81 1011.4
20260509050529 72 0 0.0 0.0 0.00 0.01 0.00 81 1011.2
20260509050043 72 0 0.0 0.0 0.00 0.01 0.00 81 1011.0
20260509045531 72 0 0.0 0.0 0.00 0.01 0.01 81 1010.7
20260509045029 72 0 0.0 0.0 0.00 0.01 0.01 80 1011.0
20260509044539 72 0 0.0 0.0 0.00 0.01 0.01 80 1011.1
20260509044028 72 0 0.0 0.0 0.00 0.01 0.01 80 1011.2
20260509043528 72 0 0.0 0.0 0.00 0.01 0.01 80 1010.9
20260509043044 72 0 0.0 3.0 0.00 0.01 0.01 80 1011.0
20260509042529 72 0 0.0 3.0 0.00 0.01 0.01 80 1011.0
20260509042030 72 123 0.0 3.0 0.00 0.01 0.01 80 1011.0
20260509041536 72 123 0.0 3.0 0.00 0.01 0.01 80 1011.2
20260509041029 72 117 1.0 3.0 0.00 0.01 0.01 80 1011.2
20260509040532 72 126 0.0 2.0 0.00 0.01 0.01 79 1011.3
20260509040037 72 0 0.0 1.0 0.00 0.01 0.01 80 1011.6
20260509035529 72 0 0.0 1.0 0.00 0.01 0.01 80 1011.8
20260509035029 72 0 0.0 1.0 0.00 0.01 0.01 79 1011.8
20260509034543 72 0 0.0 2.0 0.00 0.01 0.01 79 1011.6
20260509034029 72 0 0.0 2.0 0.00 0.01 0.01 79 1011.4
20260509033532 72 0 0.0 4.0 0.00 0.01 0.01 79 1011.3
20260509033039 72 0 0.0 4.0 0.00 0.01 0.01 79 1011.1
20260509032529 72 0 0.0 3.0 0.00 0.01 0.01 79 1011.0
20260509032029 72 0 0.0 3.0 0.00 0.01 0.01 79 1011.1
20260509031538 72 109 0.0 3.0 0.00 0.01 0.01 79 1010.9
20260509031030 72 146 0.0 3.0 0.00 0.01 0.01 79 1011.0
20260509030530 72 142 1.0 3.0 0.00 0.01 0.01 78 1010.9
20260509030041 72 132 0.0 2.0 0.00 0.01 0.01 78 1010.8
20260509025533 72 132 0.0 2.0 0.00 0.01 0.01 78 1010.7
20260509025033 72 0 0.0 2.0 0.00 0.01 0.01 78 1010.7
20260509024542 73 0 0.0 2.0 0.00 0.01 0.01 77 1010.6
20260509024029 73 0 0.0 3.0 0.00 0.01 0.01 77 1010.5
20260509023529 73 0 0.0 3.0 0.00 0.01 0.01 77 1010.4
20260509023041 73 0 0.0 3.0 0.00 0.01 0.01 77 1010.1
20260509022531 73 0 0.0 3.0 0.00 0.01 0.01 76 1010.0
20260509022031 73 0 0.0 3.0 0.00 0.01 0.01 77 1010.0
20260509021539 73 0 0.0 3.0 0.00 0.01 0.01 76 1010.0
20260509021028 73 0 0.0 3.0 0.00 0.01 0.01 76 1010.0
20260509020529 73 0 0.0 2.0 0.00 0.01 0.01 76 1009.9
20260509020051 73 0 0.0 2.0 0.00 0.01 0.01 76 1009.8
20260509015530 73 0 0.0 4.0 0.00 0.01 0.01 75 1009.8
20260509015029 73 0 0.0 4.0 0.00 0.01 0.01 75 1010.0
20260509014548 74 0 0.0 2.0 0.00 0.01 0.01 75 1010.1
20260509014029 74 0 0.0 3.0 0.00 0.01 0.01 75 1010.2
20260509013529 74 0 0.0 3.0 0.00 0.01 0.01 74 1010.1
20260509013043 74 0 1.0 3.0 0.00 0.01 0.01 74 1010.0
20260509012529 74 0 0.0 4.0 0.00 0.01 0.01 74 1010.0
20260509012029 74 0 0.0 4.0 0.00 0.01 0.01 74 1009.9
20260509011540 74 0 0.0 5.0 0.00 0.01 0.01 74 1009.9
20260509011029 74 0 0.0 5.0 0.00 0.01 0.01 73 1009.6
20260509010530 74 150 0.0 3.0 0.00 0.01 0.01 73 1009.5
20260509010047 74 150 0.0 3.0 0.00 0.01 0.01 73 1009.4
20260509005529 74 0 1.0 5.0 0.00 0.01 0.01 73 1009.5
20260509005030 74 0 0.0 5.0 0.00 0.01 0.01 72 1009.4
20260509004538 75 0 1.0 5.0 0.00 0.01 0.01 72 1009.3
20260509004029 75 0 0.0 3.0 0.00 0.01 0.01 71 1009.3
20260509003531 75 0 0.0 6.0 0.00 0.01 0.01 71 1009.3
20260509003045 75 155 0.0 7.0 0.00 0.01 0.01 71 1009.2
20260509002529 75 130 1.0 7.0 0.00 0.01 0.01 70 1009.2
20260509002029 75 130 0.0 4.0 0.00 0.01 0.01 70 1009.2
20260509001542 76 0 0.0 4.0 0.00 0.01 0.01 70 1009.3
20260509001030 76 126 0.0 4.0 0.00 0.01 0.01 70 1009.2
20260509000529 76 146 1.0 4.0 0.00 0.01 0.01 69 1009.5
20260509000040 76 0 0.0 5.0 0.00 0.01 0.01 69 1009.5
20260508235529 76 138 0.0 5.0 0.00 0.01 0.01 68 1009.6
20260508235026 76 0 0.0 3.0 0.00 0.01 0.01 68 1009.6
20260508234538 77 148 0.0 3.0 0.00 0.01 0.01 67 1009.5
20260508234032 77 0 0.0 4.0 0.00 0.01 0.01 67 1009.7
20260508233529 77 142 1.0 4.0 0.00 0.01 0.01 66 1009.8
20260508233036 78 0 0.0 1.0 0.00 0.01 0.01 66 1009.7
20260508232530 78 0 0.0 3.0 0.00 0.01 0.01 66 1009.7
20260508232029 78 150 0.0 4.0 0.00 0.01 0.01 66 1009.7
20260508231543 78 0 0.0 5.0 0.00 0.01 0.01 66 1009.8
20260508231030 78 169 0.0 5.0 0.00 0.01 0.01 65 1009.8
20260508230529 78 0 1.0 7.0 0.00 0.01 0.01 65 1009.6
20260508230041 78 150 2.0 7.0 0.00 0.01 0.01 65 1009.7
20260508225529 78 142 1.0 9.0 0.00 0.01 0.01 65 1009.8
20260508225029 77 0 2.0 9.0 0.00 0.01 0.01 65 1009.7
20260508224541 77 0 0.0 5.0 0.00 0.01 0.01 66 1009.7
20260508224029 77 0 1.0 5.0 0.00 0.01 0.01 66 1009.8
20260508223529 76 202 0.0 4.0 0.00 0.01 0.01 67 1009.7
20260508223041 76 0 1.0 7.0 0.00 0.01 0.01 67 1009.7
20260508222528 76 0 0.0 8.0 0.00 0.01 0.01 66 1009.8
20260508222029 76 0 2.0 8.0 0.00 0.01 0.01 66 1009.8
20260508221537 77 178 2.0 6.0 0.00 0.01 0.01 65 1009.8
20260508221030 77 201 1.0 6.0 0.00 0.01 0.01 65 1009.8
20260508220530 77 0 0.0 6.0 0.00 0.01 0.01 66 1009.9
20260508220036 77 0 0.0 3.0 0.00 0.01 0.01 66 1009.9
20260508215529 77 0 0.0 4.0 0.00 0.01 0.01 66 1009.9
20260508215029 77 146 0.0 6.0 0.00 0.01 0.01 66 1009.9
20260508214544 77 155 0.0 6.0 0.00 0.01 0.01 67 1009.9
20260508214030 76 0 1.0 7.0 0.00 0.01 0.01 67 1010.0
20260508213529 76 162 1.0 7.0 0.00 0.01 0.01 68 1010.0
20260508213041 76 79 0.0 8.0 0.00 0.01 0.01 69 1010.0
20260508212526 75 71 0.0 8.0 0.00 0.01 0.01 68 1009.8
20260508212029 75 132 2.0 8.0 0.00 0.01 0.01 68 1010.0
20260508211539 75 0 2.0 8.0 0.00 0.01 0.01 68 1010.0
20260508211029 74 129 2.0 7.0 0.00 0.01 0.01 68 1010.2
20260508210530 74 88 1.0 6.0 0.00 0.01 0.01 68 1009.9
20260508210038 74 105 2.0 6.0 0.00 0.01 0.01 67 1010.1
20260508205529 74 134 1.0 5.0 0.00 0.01 0.01 67 1010.6
20260508205029 74 0 1.0 5.0 0.00 0.01 0.01 67 1010.8
20260508204545 75 0 0.0 2.0 0.00 0.01 0.01 67 1011.0
20260508204028 75 0 0.0 2.0 0.00 0.01 0.01 66 1011.4
20260508203528 75 0 0.0 1.0 0.00 0.01 0.01 65 1011.4
20260508203043 75 0 0.0 2.0 0.00 0.01 0.01 65 1011.5
20260508202530 76 0 0.0 2.0 0.00 0.01 0.01 65 1011.8
20260508202029 76 0 0.0 2.0 0.00 0.01 0.01 64 1011.8
20260508201551 76 0 0.0 2.0 0.00 0.01 0.01 64 1011.7
20260508201029 77 0 0.0 2.0 0.00 0.01 0.01 63 1011.7
20260508200529 77 0 0.0 1.0 0.00 0.01 0.01 63 1011.7
20260508200038 77 0 0.0 3.0 0.00 0.01 0.01 63 1011.6
20260508195528 78 0 0.0 3.0 0.00 0.01 0.01 63 1011.6
20260508195029 78 0 0.0 2.0 0.00 0.01 0.01 62 1011.5
20260508194541 78 0 0.0 5.0 0.00 0.01 0.01 62 1011.5
20260508194028 78 0 0.0 5.0 0.00 0.01 0.01 62 1011.5
20260508193528 78 0 1.0 3.0 0.00 0.01 0.01 62 1011.6
20260508193037 79 0 0.0 4.0 0.00 0.01 0.01 61 1011.6
20260508192529 79 0 0.0 6.0 0.00 0.01 0.01 60 1011.7
20260508192028 79 137 0.0 7.0 0.00 0.01 0.01 60 1011.8
20260508191543 79 32 1.0 7.0 0.00 0.01 0.01 60 1011.8
20260508191029 79 0 0.0 7.0 0.00 0.01 0.01 59 1011.9
20260508190530 80 132 1.0 7.0 0.00 0.01 0.01 59 1011.9
20260508190044 80 189 0.0 6.0 0.00 0.01 0.01 60 1011.9
20260508185529 80 150 1.0 6.0 0.00 0.01 0.01 59 1012.0
20260508185029 80 131 0.0 6.0 0.00 0.01 0.01 60 1011.9
20260508184542 80 132 1.0 5.0 0.00 0.01 0.01 60 1012.0
20260508184028 80 0 0.0 4.0 0.00 0.01 0.01 59 1012.1
20260508183528 80 192 0.0 4.0 0.00 0.01 0.01 59 1012.1
20260508183037 80 0 0.0 5.0 0.00 0.01 0.01 59 1012.2
20260508182529 80 178 0.0 5.0 0.00 0.01 0.01 58 1012.3
20260508182028 80 135 1.0 4.0 0.00 0.01 0.01 58 1012.3
20260508181552 81 263 1.0 4.0 0.00 0.01 0.01 57 1012.3
20260508181031 81 171 0.0 7.0 0.00 0.01 0.01 57 1012.5
20260508180529 81 98 3.0 7.0 0.00 0.01 0.01 57 1012.7
20260508180044 81 0 2.0 6.0 0.00 0.01 0.01 59 1012.7
20260508175529 80 0 0.0 6.0 0.00 0.01 0.01 60 1012.8
20260508175030 80 0 0.0 6.0 0.00 0.01 0.01 59 1012.9
20260508174551 80 157 0.0 3.0 0.00 0.01 0.01 58 1012.9
20260508174029 80 0 0.0 4.0 0.00 0.01 0.01 58 1012.9
20260508173528 79 190 1.0 4.0 0.00 0.01 0.01 59 1012.9
20260508173044 79 0 0.0 5.0 0.00 0.01 0.01 59 1013.0
20260508172526 79 159 0.0 6.0 0.00 0.01 0.01 59 1013.2
20260508172026 79 148 1.0 6.0 0.00 0.01 0.01 59 1013.2
20260508171537 78 0 0.0 7.0 0.00 0.01 0.01 59 1013.1
20260508171025 78 132 1.0 7.0 0.00 0.01 0.01 60 1013.2
20260508170530 77 152 1.0 5.0 0.00 0.01 0.01 60 1013.5
20260508170043 77 0 0.0 5.0 0.00 0.01 0.01 60 1013.8
20260508165528 76 134 1.0 5.0 0.00 0.01 0.01 61 1014.0
20260508165028 76 0 0.0 4.0 0.00 0.01 0.01 64 1014.1
20260508164543 75 0 0.0 8.0 0.00 0.01 0.01 62 1014.2
20260508164029 75 0 0.0 8.0 0.00 0.01 0.01 63 1014.2
20260508163528 74 173 0.0 5.0 0.00 0.01 0.01 63 1014.4
20260508163044 74 96 0.0 4.0 0.00 0.01 0.01 63 1014.5
20260508162527 74 180 0.0 4.0 0.00 0.01 0.01 63 1014.6
20260508162028 74 0 0.0 4.0 0.00 0.01 0.01 63 1014.6
20260508161540 74 0 0.0 6.0 0.00 0.01 0.01 64 1014.6
20260508161029 73 0 1.0 7.0 0.00 0.01 0.01 65 1014.6
20260508160528 72 163 1.0 7.0 0.00 0.01 0.01 67 1014.6
20260508160037 71 211 1.0 7.0 0.00 0.01 0.01 69 1014.7
20260508155530 70 170 0.0 7.0 0.00 0.01 0.01 70 1014.9
20260508155029 70 170 0.0 7.0 0.00 0.01 0.01 71 1014.9
20260508154536 69 115 1.0 6.0 0.00 0.01 0.01 69 1014.9
20260508154029 69 146 2.0 5.0 0.00 0.01 0.01 70 1015.2
20260508153530 69 122 0.0 3.0 0.00 0.01 0.01 71 1015.3
20260508153036 68 142 0.0 6.0 0.00 0.01 0.01 72 1015.2
20260508152529 68 134 0.0 6.0 0.00 0.01 0.01 70 1015.2
20260508152030 68 146 1.0 5.0 0.00 0.01 0.01 70 1015.4
20260508151544 68 0 1.0 5.0 0.00 0.01 0.01 70 1015.5
20260508151029 68 0 0.0 4.0 0.00 0.01 0.01 71 1015.4
20260508150532 67 0 0.0 5.0 0.00 0.01 0.01 70 1015.4
20260508150040 67 0 0.0 5.0 0.00 0.01 0.01 71 1015.4
20260508145530 67 0 0.0 3.0 0.00 0.01 0.01 71 1015.4
20260508145032 67 0 0.0 4.0 0.00 0.01 0.01 71 1015.3
20260508144544 67 0 0.0 7.0 0.00 0.01 0.01 71 1015.3
20260508144030 67 103 1.0 7.0 0.00 0.01 0.01 71 1015.2
20260508143531 67 136 0.0 5.0 0.00 0.01 0.01 71 1015.3
20260508143044 67 142 1.0 7.0 0.00 0.01 0.01 71 1015.4
20260508142529 66 0 0.0 7.0 0.00 0.01 0.01 72 1015.5
20260508142030 66 0 1.0 7.0 0.00 0.01 0.01 73 1015.6
20260508141608 66 0 0.0 2.0 0.00 0.01 0.01 75 1015.5
20260508141029 66 0 0.0 5.0 0.00 0.01 0.01 75 1015.5
20260508140530 65 0 0.0 7.0 0.00 0.01 0.01 77 1015.5
20260508140043 65 156 1.0 7.0 0.00 0.01 0.01 78 1015.5
20260508135529 64 134 1.0 6.0 0.00 0.01 0.01 79 1015.6
20260508135030 64 0 0.0 6.0 0.00 0.01 0.01 80 1015.6
20260508134552 64 154 1.0 7.0 0.00 0.01 0.01 82 1015.4
20260508134029 63 0 0.0 7.0 0.00 0.01 0.01 82 1015.5
20260508133529 63 129 0.0 4.0 0.00 0.01 0.01 82 1015.4
20260508133038 62 0 0.0 6.0 0.00 0.01 0.01 83 1015.5
20260508132531 62 137 1.0 6.0 0.00 0.01 0.01 84 1015.4
20260508132030 62 0 0.0 5.0 0.00 0.01 0.01 85 1015.3
20260508131536 62 0 0.0 2.0 0.00 0.01 0.01 85 1015.4
20260508131032 62 0 0.0 2.0 0.00 0.01 0.01 85 1015.5
20260508130530 62 0 0.0 1.0 0.00 0.01 0.01 85 1015.6
20260508130043 62 0 0.0 2.0 0.00 0.01 0.01 86 1015.8
20260508125529 62 0 0.0 3.0 0.00 0.01 0.01 86 1015.7
20260508125029 61 0 0.0 3.0 0.00 0.01 0.01 86 1015.6
20260508124548 61 0 0.0 3.0 0.00 0.01 0.01 86 1015.8
20260508124032 61 0 0.0 1.0 0.00 0.01 0.01 86 1015.7
20260508123529 61 112 0.0 0.0 0.00 0.01 0.01 86 1015.8
20260508123047 61 0 0.0 0.0 0.00 0.01 0.01 86 1016.0
20260508122529 61 0 0.0 1.0 0.00 0.01 0.01 86 1015.8
20260508122032 61 0 0.0 1.0 0.00 0.01 0.01 86 1015.8
20260508121539 61 0 0.0 2.0 0.00 0.01 0.01 86 1015.7
20260508121031 61 0 0.0 2.0 0.00 0.01 0.01 86 1015.5
20260508120530 61 0 0.0 0.0 0.00 0.01 0.01 86 1015.7
20260508120037 61 0 0.0 0.0 0.00 0.01 0.01 86 1015.8
20260508115530 61 0 0.0 0.0 0.00 0.01 0.01 86 1015.7
20260508115029 61 0 0.0 1.0 0.00 0.01 0.01 86 1015.8
20260508114543 61 0 0.0 2.0 0.00 0.01 0.01 86 1015.9
20260508114030 61 0 0.0 2.0 0.00 0.01 0.01 86 1015.7
20260508113530 61 0 0.0 3.0 0.00 0.01 0.01 86 1015.8
20260508113052 61 0 0.0 3.0 0.00 0.01 0.01 86 1015.7
20260508112529 61 0 0.0 2.0 0.00 0.01 0.01 86 1015.7
20260508112030 61 0 0.0 2.0 0.00 0.01 0.01 86 1015.7
20260508111544 61 0 0.0 2.0 0.00 0.01 0.01 86 1015.6
20260508111029 61 119 0.0 2.0 0.00 0.01 0.01 86 1015.6
20260508110530 61 0 0.0 0.0 0.00 0.01 0.01 86 1015.9
20260508110047 61 0 0.0 2.0 0.00 0.01 0.01 86 1016.0
20260508105530 61 0 0.0 2.0 0.00 0.01 0.01 86 1016.3
20260508105030 61 0 0.0 1.0 0.00 0.01 0.01 86 1016.4
20260508104536 61 0 0.0 0.0 0.00 0.01 0.01 85 1015.9
20260508104030 61 0 0.0 0.0 0.00 0.01 0.01 85 1015.5
20260508103530 61 0 0.0 0.0 0.00 0.01 0.01 85 1015.5
20260508103046 61 0 0.0 0.0 0.00 0.01 0.01 85 1015.3
20260508102533 61 0 0.0 0.0 0.00 0.01 0.01 85 1015.1
20260508102029 61 0 0.0 0.0 0.00 0.01 0.01 85 1014.8
20260508101542 61 0 0.0 0.0 0.00 0.01 0.01 85 1014.9